Time,TemperatureF,DewpointF,PressureIn,WindDirection,WindDirectionDegrees,WindSpeedMPH,WindSpeedGustMPH,Humidity,HourlyPrecipIn,Conditions,Clouds,dailyrainin,SoftwareType,DateUTC
2013-01-31 00:00:00,57.4,56.6,29.41,SSE,158,7.0,13.0,97,0.01,,---,0.18,VWS V14.01,2013-01-31 05:00:00,
2013-01-31 00:01:00,57.4,56.6,29.41,South,186,8.0,13.0,97,0.01,,---,0.18,VWS V14.01,2013-01-31 05:01:00,
2013-01-31 00:03:00,57.5,56.7,29.41,SSW,202,9.0,26.0,97,0.01,,---,0.18,VWS V14.01,2013-01-31 05:03:00,
2013-01-31 00:08:00,57.6,56.8,29.40,SSE,150,7.0,15.0,97,0.00,,---,0.00,VWS V14.01,2013-01-31 05:08:00,
2013-01-31 00:13:00,57.6,56.5,29.39,SW,217,3.0,9.0,96,0.00,,---,0.00,VWS V14.01,2013-01-31 05:13:00,
2013-01-31 00:18:00,57.7,56.9,29.39,WSW,242,9.0,16.0,97,0.00,,---,0.00,VWS V14.01,2013-01-31 05:18:00,
2013-01-31 00:23:00,57.8,56.7,29.39,SSW,195,5.0,13.0,96,0.00,,---,0.00,VWS V14.01,2013-01-31 05:23:00,
2013-01-31 00:28:00,58.1,57.0,29.39,SSW,200,6.0,18.0,96,0.00,,---,0.00,VWS V14.01,2013-01-31 05:28:00,
2013-01-31 00:33:00,58.2,57.1,29.38,SW,224,7.0,13.0,96,0.00,,---,0.00,VWS V14.01,2013-01-31 05:33:00,
2013-01-31 00:38:00,58.4,57.0,29.38,SSE,162,8.0,13.0,95,0.00,,---,0.00,VWS V14.01,2013-01-31 05:38:00,
2013-01-31 00:43:00,58.6,57.2,29.37,SSW,205,3.0,14.0,95,0.00,,---,0.00,VWS V14.01,2013-01-31 05:43:00,
2013-01-31 00:48:00,58.5,57.1,29.37,South,180,6.0,15.0,95,0.00,,---,0.00,VWS V14.01,2013-01-31 05:48:00,
2013-01-31 00:53:00,58.6,57.2,29.36,South,181,3.0,14.0,95,0.00,,---,0.00,VWS V14.01,2013-01-31 05:53:00,
2013-01-31 00:58:00,58.6,57.5,29.35,SE,126,5.0,15.0,96,0.00,,---,0.00,VWS V14.01,2013-01-31 05:58:00,
2013-01-31 01:03:00,58.6,57.5,29.35,SE,141,4.0,15.0,96,0.00,,---,0.00,VWS V14.01,2013-01-31 06:03:00,
2013-01-31 01:08:00,58.5,57.4,29.34,SE,140,11.0,21.0,96,0.00,,---,0.00,VWS V14.01,2013-01-31 06:08:00,
2013-01-31 01:13:00,58.6,57.5,29.34,SSE,163,0.0,15.0,96,0.00,,---,0.00,VWS V14.01,2013-01-31 06:13:00,
2013-01-31 01:18:00,59.0,57.9,29.33,South,179,6.0,18.0,96,0.00,,---,0.00,VWS V14.01,2013-01-31 06:18:00,
2013-01-31 01:23:00,59.0,57.6,29.32,SSW,211,13.0,16.0,95,0.00,,---,0.00,VWS V14.01,2013-01-31 06:23:00,
2013-01-31 01:28:00,59.0,57.6,29.32,SSE,153,6.0,19.0,95,0.00,,---,0.00,VWS V14.01,2013-01-31 06:28:00,
2013-01-31 01:33:00,59.0,57.6,29.31,SSW,201,8.0,17.0,95,0.00,,---,0.00,VWS V14.01,2013-01-31 06:33:00,
2013-01-31 01:38:00,59.2,57.8,29.31,SSE,155,4.0,18.0,95,0.00,,---,0.00,VWS V14.01,2013-01-31 06:38:00,
2013-01-31 01:43:00,59.3,57.9,29.31,ESE,113,6.0,12.0,95,0.00,,---,0.00,VWS V14.01,2013-01-31 06:43:00,
2013-01-31 01:48:00,59.5,57.8,29.31,SSW,213,6.0,21.0,94,0.00,,---,0.00,VWS V14.01,2013-01-31 06:48:00,
2013-01-31 01:53:00,59.5,58.1,29.30,SSW,200,4.0,16.0,95,0.00,,---,0.00,VWS V14.01,2013-01-31 06:53:00,
2013-01-31 01:58:00,59.7,58.0,29.30,SSW,193,6.0,24.0,94,0.00,,---,0.00,VWS V14.01,2013-01-31 06:58:00,
2013-01-31 02:03:00,59.7,58.0,29.28,SW,217,4.0,22.0,94,0.00,,---,0.00,VWS V14.01,2013-01-31 07:03:00,
2013-01-31 02:08:00,59.7,58.3,29.27,SSE,164,2.0,15.0,95,0.00,,---,0.00,VWS V14.01,2013-01-31 07:08:00,
2013-01-31 02:13:00,59.7,58.3,29.28,SSW,201,1.0,22.0,95,0.00,,---,0.00,VWS V14.01,2013-01-31 07:13:00,
2013-01-31 02:18:00,59.7,58.3,29.27,SW,227,7.0,19.0,95,0.00,,---,0.00,VWS V14.01,2013-01-31 07:18:00,
2013-01-31 02:23:00,59.7,58.3,29.27,SSW,196,4.0,19.0,95,0.00,,---,0.00,VWS V14.01,2013-01-31 07:23:00,
2013-01-31 02:28:00,59.7,58.6,29.26,South,175,9.0,19.0,96,0.01,,---,0.01,VWS V14.01,2013-01-31 07:28:00,
2013-01-31 02:33:00,59.6,58.2,29.26,SSE,151,6.0,13.0,95,0.01,,---,0.01,VWS V14.01,2013-01-31 07:33:00,
2013-01-31 02:38:00,59.6,58.5,29.25,SW,217,7.0,14.0,96,0.01,,---,0.01,VWS V14.01,2013-01-31 07:38:00,
2013-01-31 02:43:00,59.6,58.5,29.24,South,180,6.0,16.0,96,0.01,,---,0.01,VWS V14.01,2013-01-31 07:43:00,
2013-01-31 02:48:00,59.6,58.5,29.23,South,191,8.0,16.0,96,0.01,,---,0.01,VWS V14.01,2013-01-31 07:48:00,
2013-01-31 02:53:00,59.7,58.6,29.22,SSW,193,3.0,17.0,96,0.01,,---,0.01,VWS V14.01,2013-01-31 07:53:00,
2013-01-31 02:58:00,59.6,58.5,29.22,SSE,163,7.0,17.0,96,0.01,,---,0.01,VWS V14.01,2013-01-31 07:58:00,
2013-01-31 03:03:00,59.7,58.6,29.20,SW,215,2.0,18.0,96,0.01,,---,0.01,VWS V14.01,2013-01-31 08:03:00,
2013-01-31 03:08:00,59.8,58.7,29.20,NW,314,6.0,23.0,96,0.01,,---,0.01,VWS V14.01,2013-01-31 08:08:00,
2013-01-31 03:14:00,59.9,58.5,29.19,South,184,4.0,19.0,95,0.02,,---,0.02,VWS V14.01,2013-01-31 08:14:00,
2013-01-31 03:19:00,59.9,58.5,29.19,West,270,20.0,20.0,95,0.02,,---,0.02,VWS V14.01,2013-01-31 08:19:00,
2013-01-31 03:24:00,60.0,58.6,29.17,West,267,9.0,15.0,95,0.02,,---,0.02,VWS V14.01,2013-01-31 08:24:00,
2013-01-31 03:29:00,59.9,58.5,29.16,SSE,165,5.0,6.0,95,0.01,,---,0.02,VWS V14.01,2013-01-31 08:29:00,
2013-01-31 03:34:00,60.0,58.6,29.16,South,173,2.0,17.0,95,0.01,,---,0.02,VWS V14.01,2013-01-31 08:34:00,
2013-01-31 03:39:00,60.1,58.7,29.15,South,191,6.0,9.0,95,0.01,,---,0.02,VWS V14.01,2013-01-31 08:39:00,
2013-01-31 03:44:00,60.2,58.8,29.15,SSE,167,10.0,11.0,95,0.01,,---,0.02,VWS V14.01,2013-01-31 08:44:00,
2013-01-31 03:49:00,60.2,58.5,29.15,SSE,159,9.0,15.0,94,0.01,,---,0.02,VWS V14.01,2013-01-31 08:49:00,
2013-01-31 03:54:00,60.3,58.6,29.14,SW,214,7.0,13.0,94,0.01,,---,0.02,VWS V14.01,2013-01-31 08:54:00,
2013-01-31 03:59:00,60.6,58.9,29.13,SW,219,17.0,20.0,94,0.01,,---,0.02,VWS V14.01,2013-01-31 08:59:00,
2013-01-31 04:04:00,60.8,58.8,29.11,East,82,10.0,10.0,93,0.01,,---,0.02,VWS V14.01,2013-01-31 09:04:00,
2013-01-31 04:09:00,60.8,58.8,29.11,SSW,211,5.0,14.0,93,0.01,,---,0.02,VWS V14.01,2013-01-31 09:09:00,
2013-01-31 04:14:00,60.9,58.9,29.10,South,171,6.0,7.0,93,0.00,,---,0.02,VWS V14.01,2013-01-31 09:14:00,
2013-01-31 04:19:00,60.8,58.8,29.10,West,259,4.0,13.0,93,0.00,,---,0.02,VWS V14.01,2013-01-31 09:19:00,
2013-01-31 04:24:00,60.8,58.8,29.09,SSE,158,4.0,16.0,93,0.00,,---,0.02,VWS V14.01,2013-01-31 09:24:00,
2013-01-31 04:30:00,60.7,58.7,29.09,SSE,163,2.0,13.0,93,0.00,,---,0.02,VWS V14.01,2013-01-31 09:30:00,
2013-01-31 04:35:00,60.4,58.4,29.09,SSE,158,16.0,17.0,93,0.00,,---,0.02,VWS V14.01,2013-01-31 09:35:00,
2013-01-31 04:40:00,60.1,58.4,29.09,SW,226,10.0,12.0,94,0.00,,---,0.02,VWS V14.01,2013-01-31 09:40:00,
2013-01-31 04:45:00,59.8,58.1,29.09,ESE,108,8.0,17.0,94,0.00,,---,0.02,VWS V14.01,2013-01-31 09:45:00,
2013-01-31 04:50:00,59.5,57.8,29.08,SE,127,11.0,15.0,94,0.01,,---,0.03,VWS V14.01,2013-01-31 09:50:00,
2013-01-31 04:55:00,59.3,57.9,29.08,South,183,6.0,25.0,95,0.01,,---,0.03,VWS V14.01,2013-01-31 09:55:00,
2013-01-31 05:00:00,59.2,57.5,29.08,SSE,153,7.0,22.0,94,0.01,,---,0.03,VWS V14.01,2013-01-31 10:00:00,
2013-01-31 05:05:00,59.2,57.5,29.07,SE,143,5.0,11.0,94,0.01,,---,0.03,VWS V14.01,2013-01-31 10:05:00,
2013-01-31 05:10:00,59.2,57.5,29.07,West,275,7.0,12.0,94,0.02,,---,0.04,VWS V14.01,2013-01-31 10:10:00,
2013-01-31 05:16:00,59.0,57.6,29.06,WSW,252,8.0,19.0,95,0.02,,---,0.04,VWS V14.01,2013-01-31 10:16:00,
2013-01-31 05:21:00,59.0,57.6,29.06,SSE,157,2.0,20.0,95,0.03,,---,0.05,VWS V14.01,2013-01-31 10:21:00,
2013-01-31 05:26:00,59.0,57.6,29.05,South,171,13.0,22.0,95,0.04,,---,0.06,VWS V14.01,2013-01-31 10:26:00,
2013-01-31 05:31:00,59.0,57.6,29.04,SE,138,14.0,19.0,95,0.06,,---,0.08,VWS V14.01,2013-01-31 10:31:00,
2013-01-31 05:36:00,59.0,57.6,29.04,SSW,202,23.0,23.0,95,0.08,,---,0.10,VWS V14.01,2013-01-31 10:36:00,
2013-01-31 05:41:00,59.0,57.9,29.02,South,175,7.0,17.0,96,0.11,,---,0.13,VWS V14.01,2013-01-31 10:41:00,
2013-01-31 05:46:00,59.0,57.9,29.01,SSW,196,17.0,22.0,96,0.13,,---,0.15,VWS V14.01,2013-01-31 10:46:00,
2013-01-31 05:51:00,59.0,57.9,28.99,SE,125,5.0,24.0,96,0.13,,---,0.16,VWS V14.01,2013-01-31 10:51:00,
2013-01-31 05:57:00,59.0,57.9,28.99,SE,125,6.0,24.0,96,0.14,,---,0.17,VWS V14.01,2013-01-31 10:57:00,
2013-01-31 06:02:00,59.0,57.9,28.98,SSE,158,19.0,25.0,96,0.16,,---,0.19,VWS V14.01,2013-01-31 11:02:00,
2013-01-31 06:07:00,59.0,57.9,28.97,ESE,123,9.0,24.0,96,0.19,,---,0.22,VWS V14.01,2013-01-31 11:07:00,
2013-01-31 06:12:00,59.0,57.9,28.97,South,176,7.0,21.0,96,0.21,,---,0.24,VWS V14.01,2013-01-31 11:12:00,
2013-01-31 06:17:00,59.0,57.9,28.97,SSE,147,8.0,19.0,96,0.21,,---,0.25,VWS V14.01,2013-01-31 11:17:00,
2013-01-31 06:22:00,59.0,57.9,28.97,SSE,154,10.0,21.0,96,0.21,,---,0.26,VWS V14.01,2013-01-31 11:22:00,
2013-01-31 06:27:00,59.0,57.9,28.98,SSE,167,13.0,23.0,96,0.22,,---,0.27,VWS V14.01,2013-01-31 11:27:00,
2013-01-31 06:32:00,59.0,57.9,28.98,SW,223,11.0,30.0,96,0.20,,---,0.27,VWS V14.01,2013-01-31 11:32:00,
2013-01-31 06:37:00,59.0,57.9,28.98,SSE,159,12.0,23.0,96,0.21,,---,0.30,VWS V14.01,2013-01-31 11:37:00,
2013-01-31 06:42:00,59.0,57.9,28.98,South,175,8.0,26.0,96,0.19,,---,0.31,VWS V14.01,2013-01-31 11:42:00,
2013-01-31 06:48:00,59.0,57.9,29.00,SSW,202,6.0,33.0,96,0.18,,---,0.32,VWS V14.01,2013-01-31 11:48:00,
2013-01-31 06:53:00,59.2,58.1,28.99,WSW,239,10.0,22.0,96,0.17,,---,0.32,VWS V14.01,2013-01-31 11:53:00,
2013-01-31 06:58:00,59.5,58.4,29.00,WSW,245,2.0,20.0,96,0.15,,---,0.32,VWS V14.01,2013-01-31 11:58:00,
2013-01-31 07:03:00,59.5,58.1,29.01,SW,235,5.0,24.0,95,0.14,,---,0.32,VWS V14.01,2013-01-31 12:03:00,
2013-01-31 07:08:00,59.5,57.5,29.00,South,169,4.0,29.0,93,0.12,,---,0.32,VWS V14.01,2013-01-31 12:08:00,
2013-01-31 07:13:00,59.4,57.1,28.99,SSW,198,4.0,24.0,92,0.09,,---,0.32,VWS V14.01,2013-01-31 12:13:00,
2013-01-31 07:18:00,59.0,56.4,28.99,SW,215,16.0,21.0,91,0.08,,---,0.32,VWS V14.01,2013-01-31 12:18:00,
2013-01-31 07:23:00,59.0,56.4,28.99,SW,228,5.0,27.0,91,0.07,,---,0.32,VWS V14.01,2013-01-31 12:23:00,
2013-01-31 07:28:00,59.0,56.4,28.98,SW,217,1.0,14.0,91,0.06,,---,0.32,VWS V14.01,2013-01-31 12:28:00,
2013-01-31 07:33:00,58.8,56.2,28.97,SSW,213,9.0,14.0,91,0.05,,---,0.32,VWS V14.01,2013-01-31 12:33:00,
2013-01-31 07:39:00,58.5,55.9,28.96,SW,221,5.0,14.0,91,0.05,,---,0.33,VWS V14.01,2013-01-31 12:39:00,
2013-01-31 07:44:00,58.2,55.9,28.94,SSE,163,1.0,1.0,92,0.02,,---,0.33,VWS V14.01,2013-01-31 12:44:00,
2013-01-31 07:49:00,58.1,55.8,28.94,SSE,161,4.0,5.0,92,0.01,,---,0.33,VWS V14.01,2013-01-31 12:49:00,
2013-01-31 07:54:00,58.0,56.0,28.95,SSE,160,6.0,8.0,93,0.01,,---,0.33,VWS V14.01,2013-01-31 12:54:00,
2013-01-31 07:59:00,58.2,55.9,28.96,West,264,18.0,19.0,92,0.01,,---,0.33,VWS V14.01,2013-01-31 12:59:00,
2013-01-31 08:04:00,58.5,55.6,28.93,South,170,5.0,6.0,90,0.01,,---,0.33,VWS V14.01,2013-01-31 13:04:00,
2013-01-31 08:09:00,58.4,55.5,28.94,South,186,6.0,9.0,90,0.01,,---,0.33,VWS V14.01,2013-01-31 13:09:00,
2013-01-31 08:14:00,58.5,55.3,28.94,SW,223,6.0,11.0,89,0.01,,---,0.33,VWS V14.01,2013-01-31 13:14:00,
2013-01-31 08:19:00,58.5,55.3,28.93,South,181,14.0,17.0,89,0.01,,---,0.33,VWS V14.01,2013-01-31 13:19:00,
2013-01-31 08:24:00,58.5,55.3,28.94,SSW,192,7.0,22.0,89,0.01,,---,0.33,VWS V14.01,2013-01-31 13:24:00,
2013-01-31 08:30:00,58.6,55.1,28.93,South,182,9.0,17.0,88,0.01,,---,0.33,VWS V14.01,2013-01-31 13:30:00,
2013-01-31 08:35:00,58.6,55.1,28.93,West,261,4.0,7.0,88,0.01,,---,0.33,VWS V14.01,2013-01-31 13:35:00,
2013-01-31 08:40:00,58.6,55.1,28.92,SSE,163,7.0,13.0,88,0.00,,---,0.33,VWS V14.01,2013-01-31 13:40:00,
2013-01-31 08:45:00,58.5,55.0,28.91,SW,217,7.0,19.0,88,0.00,,---,0.33,VWS V14.01,2013-01-31 13:45:00,
2013-01-31 08:50:00,58.4,54.9,28.94,South,186,8.0,17.0,88,0.00,,---,0.33,VWS V14.01,2013-01-31 13:50:00,
2013-01-31 08:55:00,58.3,54.5,28.93,SSW,196,5.0,17.0,87,0.00,,---,0.33,VWS V14.01,2013-01-31 13:55:00,
2013-01-31 09:00:00,58.3,54.5,28.92,SW,236,9.0,18.0,87,0.00,,---,0.33,VWS V14.01,2013-01-31 14:00:00,
2013-01-31 09:05:00,58.2,54.0,28.94,SSW,198,15.0,22.0,86,0.00,,---,0.33,VWS V14.01,2013-01-31 14:05:00,
2013-01-31 09:11:00,58.2,53.7,28.92,WNW,284,12.0,25.0,85,0.00,,---,0.33,VWS V14.01,2013-01-31 14:11:00,
2013-01-31 09:16:00,58.1,53.6,28.92,WNW,283,7.0,14.0,85,0.00,,---,0.33,VWS V14.01,2013-01-31 14:16:00,
2013-01-31 09:21:00,58.1,53.3,28.92,SSW,213,10.0,20.0,84,0.00,,---,0.33,VWS V14.01,2013-01-31 14:21:00,
2013-01-31 09:26:00,58.3,53.5,28.92,South,183,14.0,24.0,84,0.00,,---,0.33,VWS V14.01,2013-01-31 14:26:00,
2013-01-31 09:31:00,56.7,48.9,28.98,WNW,282,7.0,26.0,75,0.00,,---,0.33,VWS V14.01,2013-01-31 14:31:00,
2013-01-31 09:36:00,52.0,45.4,29.00,West,267,18.0,27.0,78,0.07,,---,0.40,VWS V14.01,2013-01-31 14:36:00,
2013-01-31 09:41:00,47.9,43.6,29.00,WNW,296,6.0,22.0,85,0.09,,---,0.42,VWS V14.01,2013-01-31 14:41:00,
2013-01-31 09:46:00,46.3,43.2,29.02,SW,214,13.0,23.0,89,0.10,,---,0.43,VWS V14.01,2013-01-31 14:46:00,
2013-01-31 09:51:00,45.1,41.8,29.02,SW,223,9.0,27.0,88,0.10,,---,0.43,VWS V14.01,2013-01-31 14:51:00,
2013-01-31 09:56:00,44.5,41.5,29.02,West,265,4.0,26.0,89,0.11,,---,0.44,VWS V14.01,2013-01-31 14:56:00,
2013-01-31 10:01:00,44.3,41.6,29.02,WSW,253,21.0,26.0,90,0.11,,---,0.44,VWS V14.01,2013-01-31 15:01:00,
2013-01-31 10:06:00,44.0,41.0,29.03,West,264,28.0,28.0,89,0.11,,---,0.44,VWS V14.01,2013-01-31 15:06:00,
2013-01-31 10:12:00,43.7,40.4,29.04,WSW,245,19.0,22.0,88,0.11,,---,0.44,VWS V14.01,2013-01-31 15:12:00,
2013-01-31 10:17:00,43.3,39.7,29.04,West,260,10.0,30.0,87,0.11,,---,0.44,VWS V14.01,2013-01-31 15:17:00,
2013-01-31 10:22:00,42.9,39.6,29.04,West,273,3.0,21.0,88,0.11,,---,0.44,VWS V14.01,2013-01-31 15:22:00,
2013-01-31 10:27:00,42.6,39.6,29.04,NW,309,8.0,23.0,89,0.11,,---,0.44,VWS V14.01,2013-01-31 15:27:00,
2013-01-31 10:32:00,42.6,39.9,29.05,NW,313,7.0,13.0,90,0.11,,---,0.44,VWS V14.01,2013-01-31 15:32:00,
2013-01-31 10:37:00,42.9,39.9,29.05,WSW,246,12.0,19.0,89,0.07,,---,0.44,VWS V14.01,2013-01-31 15:37:00,
2013-01-31 10:42:00,43.4,39.2,29.05,West,271,16.0,19.0,85,0.03,,---,0.44,VWS V14.01,2013-01-31 15:42:00,
2013-01-31 10:47:00,43.9,39.7,29.07,WSW,247,7.0,15.0,85,0.01,,---,0.44,VWS V14.01,2013-01-31 15:47:00,
2013-01-31 10:52:00,44.3,39.2,29.08,SSW,211,28.0,28.0,82,0.01,,---,0.44,VWS V14.01,2013-01-31 15:52:00,
2013-01-31 10:58:00,44.5,38.7,29.08,WSW,256,10.0,21.0,80,0.00,,---,0.44,VWS V14.01,2013-01-31 15:58:00,
2013-01-31 11:03:00,44.6,38.8,29.09,West,267,13.0,21.0,80,0.00,,---,0.44,VWS V14.01,2013-01-31 16:03:00,
2013-01-31 11:08:00,45.0,38.6,29.10,WSW,250,5.0,25.0,78,0.00,,---,0.44,VWS V14.01,2013-01-31 16:08:00,
2013-01-31 11:13:00,45.0,38.6,29.10,SW,223,10.0,21.0,78,0.00,,---,0.44,VWS V14.01,2013-01-31 16:13:00,
2013-01-31 11:18:00,44.6,37.5,29.10,West,259,25.0,25.0,76,0.00,,---,0.44,VWS V14.01,2013-01-31 16:18:00,
2013-01-31 11:23:00,44.3,37.2,29.11,SW,219,12.0,22.0,76,0.00,,---,0.44,VWS V14.01,2013-01-31 16:23:00,
2013-01-31 11:28:00,44.4,36.3,29.11,WSW,244,14.0,21.0,73,0.00,,---,0.44,VWS V14.01,2013-01-31 16:28:00,
2013-01-31 11:33:00,44.8,35.6,29.12,West,269,11.0,25.0,70,0.00,,---,0.44,VWS V14.01,2013-01-31 16:33:00,
2013-01-31 11:38:00,44.8,35.3,29.11,WSW,252,11.0,28.0,69,0.00,,---,0.44,VWS V14.01,2013-01-31 16:38:00,
2013-01-31 11:44:00,44.6,34.3,29.12,SSW,212,11.0,26.0,67,0.00,,---,0.44,VWS V14.01,2013-01-31 16:44:00,
2013-01-31 11:49:00,44.6,34.0,29.13,NW,323,6.0,21.0,66,0.00,,---,0.44,VWS V14.01,2013-01-31 16:49:00,
2013-01-31 11:54:00,44.7,33.3,29.13,WNW,295,21.0,23.0,64,0.00,,---,0.44,VWS V14.01,2013-01-31 16:54:00,
2013-01-31 11:59:00,44.5,32.3,29.13,WSW,248,14.0,32.0,62,0.00,,---,0.44,VWS V14.01,2013-01-31 16:59:00,
2013-01-31 12:04:00,44.5,32.7,29.14,WSW,257,8.0,8.0,63,0.00,,---,0.44,VWS V14.01,2013-01-31 17:04:00,
2013-01-31 12:09:00,44.4,33.4,29.14,WSW,241,14.0,20.0,65,0.00,,---,0.44,VWS V14.01,2013-01-31 17:09:00,
2013-01-31 12:14:00,44.9,33.5,29.14,SW,236,20.0,25.0,64,0.00,,---,0.44,VWS V14.01,2013-01-31 17:14:00,
2013-01-31 12:19:00,45.4,32.8,29.14,West,259,10.0,12.0,61,0.00,,---,0.44,VWS V14.01,2013-01-31 17:19:00,
2013-01-31 12:24:00,45.5,32.4,29.14,West,278,18.0,18.0,60,0.00,,---,0.44,VWS V14.01,2013-01-31 17:24:00,
2013-01-31 12:29:00,45.0,31.1,29.15,SW,214,10.0,15.0,58,0.00,,---,0.44,VWS V14.01,2013-01-31 17:29:00,
2013-01-31 12:34:00,44.6,30.8,29.14,WSW,251,29.0,29.0,58,0.00,,---,0.44,VWS V14.01,2013-01-31 17:34:00,
2013-01-31 12:39:00,44.9,31.0,29.15,West,260,15.0,16.0,58,0.00,,---,0.44,VWS V14.01,2013-01-31 17:39:00,
2013-01-31 12:45:00,45.0,30.7,29.15,West,263,26.0,26.0,57,0.00,,---,0.44,VWS V14.01,2013-01-31 17:45:00,
2013-01-31 12:50:00,44.8,30.1,29.15,WNW,282,13.0,23.0,56,0.00,,---,0.44,VWS V14.01,2013-01-31 17:50:00,
2013-01-31 12:55:00,45.1,30.4,29.15,WSW,246,6.0,22.0,56,0.00,,---,0.44,VWS V14.01,2013-01-31 17:55:00,
2013-01-31 13:00:00,45.3,29.2,29.15,SW,234,16.0,18.0,53,0.00,,---,0.44,VWS V14.01,2013-01-31 18:00:00,
2013-01-31 13:05:00,45.6,29.5,29.15,WNW,284,4.0,19.0,53,0.00,,---,0.44,VWS V14.01,2013-01-31 18:05:00,
2013-01-31 13:10:00,45.6,29.0,29.15,NW,324,6.0,19.0,52,0.00,,---,0.44,VWS V14.01,2013-01-31 18:10:00,
2013-01-31 13:15:00,45.7,30.5,29.16,WSW,257,5.0,20.0,55,0.00,,---,0.44,VWS V14.01,2013-01-31 18:15:00,
2013-01-31 13:20:00,46.0,30.3,29.16,SSW,210,5.0,21.0,54,0.00,,---,0.44,VWS V14.01,2013-01-31 18:20:00,
2013-01-31 13:25:00,46.6,30.4,29.16,WSW,258,14.0,24.0,53,0.00,,---,0.44,VWS V14.01,2013-01-31 18:25:00,
2013-01-31 13:30:00,46.3,28.7,29.17,West,260,5.0,22.0,50,0.00,,---,0.44,VWS V14.01,2013-01-31 18:30:00,
2013-01-31 13:35:00,45.2,29.1,29.18,SW,229,8.0,22.0,53,0.00,,---,0.44,VWS V14.01,2013-01-31 18:35:00,
2013-01-31 13:40:00,44.7,29.1,29.18,West,272,5.0,21.0,54,0.00,,---,0.44,VWS V14.01,2013-01-31 18:40:00,
2013-01-31 13:45:00,45.0,29.8,29.18,WSW,244,24.0,24.0,55,0.00,,---,0.44,VWS V14.01,2013-01-31 18:45:00,
2013-01-31 13:50:00,44.8,29.2,29.19,SW,229,6.0,13.0,54,0.00,,---,0.44,VWS V14.01,2013-01-31 18:50:00,
2013-01-31 13:56:00,43.9,27.4,29.19,North,355,4.0,31.0,52,0.00,,---,0.44,VWS V14.01,2013-01-31 18:56:00,
2013-01-31 14:01:00,43.1,27.6,29.20,WNW,289,17.0,20.0,54,0.00,,---,0.44,VWS V14.01,2013-01-31 19:01:00,
2013-01-31 14:06:00,42.5,27.5,29.20,West,274,10.0,16.0,55,0.00,,---,0.44,VWS V14.01,2013-01-31 19:06:00,
2013-01-31 14:11:00,42.0,26.1,29.21,NW,304,17.0,24.0,53,0.00,,---,0.44,VWS V14.01,2013-01-31 19:11:00,
2013-01-31 14:16:00,42.0,25.7,29.21,WNW,290,8.0,15.0,52,0.00,,---,0.44,VWS V14.01,2013-01-31 19:16:00,
2013-01-31 14:21:00,42.7,25.9,29.21,WNW,293,8.0,21.0,51,0.00,,---,0.44,VWS V14.01,2013-01-31 19:21:00,
2013-01-31 14:26:00,43.3,26.4,29.21,SSW,200,11.0,26.0,51,0.00,,---,0.44,VWS V14.01,2013-01-31 19:26:00,
2013-01-31 14:31:00,43.5,25.6,29.21,WSW,246,7.0,14.0,49,0.00,,---,0.44,VWS V14.01,2013-01-31 19:31:00,
2013-01-31 14:36:00,43.8,24.4,29.22,West,270,16.0,28.0,46,0.00,,---,0.44,VWS V14.01,2013-01-31 19:36:00,
2013-01-31 14:42:00,43.4,22.4,29.22,WSW,253,8.0,21.0,43,0.00,,---,0.44,VWS V14.01,2013-01-31 19:42:00,
2013-01-31 14:47:00,43.2,22.2,29.24,WSW,247,11.0,28.0,43,0.00,,---,0.44,VWS V14.01,2013-01-31 19:47:00,
2013-01-31 14:52:00,42.7,22.3,29.24,SW,227,1.0,27.0,44,0.00,,---,0.44,VWS V14.01,2013-01-31 19:52:00,
2013-01-31 14:57:00,42.4,22.0,29.24,West,266,11.0,26.0,44,0.00,,---,0.44,VWS V14.01,2013-01-31 19:57:00,
2013-01-31 15:02:00,42.4,22.0,29.25,WSW,257,22.0,25.0,44,0.00,,---,0.44,VWS V14.01,2013-01-31 20:02:00,
2013-01-31 15:07:00,42.3,22.0,29.25,WNW,282,11.0,24.0,44,0.00,,---,0.44,VWS V14.01,2013-01-31 20:07:00,
2013-01-31 15:12:00,41.8,21.0,29.26,South,188,11.0,24.0,43,0.00,,---,0.44,VWS V14.01,2013-01-31 20:12:00,
2013-01-31 15:17:00,41.6,20.8,29.26,WSW,248,5.0,22.0,43,0.00,,---,0.44,VWS V14.01,2013-01-31 20:17:00,
2013-01-31 15:22:00,41.2,21.0,29.27,West,269,19.0,25.0,44,0.00,,---,0.44,VWS V14.01,2013-01-31 20:22:00,
2013-01-31 15:28:00,40.8,21.1,29.28,WNW,290,4.0,22.0,45,0.00,,---,0.44,VWS V14.01,2013-01-31 20:28:00,
2013-01-31 15:33:00,40.7,21.5,29.28,West,271,1.0,14.0,46,0.00,,---,0.44,VWS V14.01,2013-01-31 20:33:00,
2013-01-31 15:38:00,40.5,22.4,29.28,WNW,298,9.0,25.0,48,0.00,,---,0.44,VWS V14.01,2013-01-31 20:38:00,
2013-01-31 15:43:00,40.2,22.1,29.28,WSW,244,11.0,24.0,48,0.00,,---,0.44,VWS V14.01,2013-01-31 20:43:00,
2013-01-31 15:48:00,39.9,21.8,29.29,WNW,302,6.0,19.0,48,0.00,,---,0.44,VWS V14.01,2013-01-31 20:48:00,
2013-01-31 15:53:00,39.8,21.7,29.29,West,260,8.0,15.0,48,0.00,,---,0.44,VWS V14.01,2013-01-31 20:53:00,
2013-01-31 15:58:00,39.5,22.4,29.30,West,260,4.0,15.0,50,0.00,,---,0.44,VWS V14.01,2013-01-31 20:58:00,
2013-01-31 16:03:00,39.3,22.2,29.31,West,273,6.0,19.0,50,0.00,,---,0.44,VWS V14.01,2013-01-31 21:03:00,
2013-01-31 16:08:00,39.1,21.6,29.30,SW,231,5.0,20.0,49,0.00,,---,0.44,VWS V14.01,2013-01-31 21:08:00,
2013-01-31 16:14:00,38.9,22.3,29.31,West,263,7.0,20.0,51,0.00,,---,0.44,VWS V14.01,2013-01-31 21:14:00,
2013-01-31 16:19:00,38.8,22.2,29.31,West,279,4.0,13.0,51,0.00,,---,0.44,VWS V14.01,2013-01-31 21:19:00,
2013-01-31 16:24:00,38.7,22.1,29.32,West,275,0.0,13.0,51,0.00,,---,0.44,VWS V14.01,2013-01-31 21:24:00,
2013-01-31 16:29:00,38.6,22.0,29.32,West,279,21.0,21.0,51,0.00,,---,0.44,VWS V14.01,2013-01-31 21:29:00,
2013-01-31 16:34:00,38.4,22.3,29.32,West,279,2.0,21.0,52,0.00,,---,0.44,VWS V14.01,2013-01-31 21:34:00,
2013-01-31 16:39:00,38.2,22.1,29.33,SSW,202,0.0,12.0,52,0.00,,---,0.44,VWS V14.01,2013-01-31 21:39:00,
2013-01-31 16:44:00,37.9,21.4,29.33,WNW,282,10.0,22.0,51,0.00,,---,0.44,VWS V14.01,2013-01-31 21:44:00,
2013-01-31 16:49:00,38.0,21.0,29.33,WSW,249,4.0,17.0,50,0.00,,---,0.44,VWS V14.01,2013-01-31 21:49:00,
2013-01-31 16:54:00,38.0,21.5,29.33,SSE,165,11.0,11.0,51,0.00,,---,0.44,VWS V14.01,2013-01-31 21:54:00,
2013-01-31 16:59:00,37.9,21.4,29.34,WSW,257,11.0,11.0,51,0.00,,---,0.44,VWS V14.01,2013-01-31 21:59:00,
2013-01-31 17:04:00,37.7,21.7,29.34,WNW,291,5.0,5.0,52,0.00,,---,0.44,VWS V14.01,2013-01-31 22:04:00,
2013-01-31 17:09:00,37.5,21.5,29.34,SW,236,10.0,11.0,52,0.00,,---,0.44,VWS V14.01,2013-01-31 22:09:00,
2013-01-31 17:14:00,37.4,21.4,29.35,West,267,10.0,10.0,52,0.00,,---,0.44,VWS V14.01,2013-01-31 22:14:00,
2013-01-31 17:19:00,37.4,21.4,29.35,WSW,256,13.0,13.0,52,0.00,,---,0.44,VWS V14.01,2013-01-31 22:19:00,
2013-01-31 17:24:00,37.4,21.4,29.35,WSW,243,5.0,9.0,52,0.00,,---,0.44,VWS V14.01,2013-01-31 22:24:00,
2013-01-31 17:29:00,37.3,21.8,29.36,WNW,286,4.0,11.0,53,0.00,,---,0.44,VWS V14.01,2013-01-31 22:29:00,
2013-01-31 17:34:00,37.0,21.9,29.36,West,278,4.0,15.0,54,0.00,,---,0.44,VWS V14.01,2013-01-31 22:34:00,
2013-01-31 17:39:00,36.8,22.2,29.37,WNW,283,9.0,9.0,55,0.00,,---,0.44,VWS V14.01,2013-01-31 22:39:00,
2013-01-31 17:44:00,36.5,21.9,29.37,West,277,5.0,14.0,55,0.00,,---,0.44,VWS V14.01,2013-01-31 22:44:00,
2013-01-31 17:49:00,36.2,22.0,29.37,WSW,238,5.0,17.0,56,0.00,,---,0.44,VWS V14.01,2013-01-31 22:49:00,
2013-01-31 17:54:00,36.1,21.1,29.38,SW,221,8.0,17.0,54,0.00,,---,0.44,VWS V14.01,2013-01-31 22:54:00,
2013-01-31 18:00:00,36.0,21.0,29.39,WNW,284,13.0,15.0,54,0.00,,---,0.44,VWS V14.01,2013-01-31 23:00:00,
2013-01-31 18:05:00,35.8,21.2,29.38,WSW,254,10.0,12.0,55,0.00,,---,0.44,VWS V14.01,2013-01-31 23:05:00,
2013-01-31 18:10:00,35.6,21.5,29.39,West,261,7.0,10.0,56,0.00,,---,0.44,VWS V14.01,2013-01-31 23:10:00,
2013-01-31 18:15:00,35.4,21.3,29.39,WNW,289,4.0,12.0,56,0.00,,---,0.44,VWS V14.01,2013-01-31 23:15:00,
2013-01-31 18:20:00,35.2,21.5,29.39,NNW,332,6.0,13.0,57,0.00,,---,0.44,VWS V14.01,2013-01-31 23:20:00,
2013-01-31 18:25:00,35.1,21.0,29.39,WNW,285,8.0,9.0,56,0.00,,---,0.44,VWS V14.01,2013-01-31 23:25:00,
2013-01-31 18:30:00,34.9,21.2,29.40,West,277,10.0,13.0,57,0.00,,---,0.44,VWS V14.01,2013-01-31 23:30:00,
2013-01-31 18:35:00,34.8,21.5,29.41,West,274,15.0,18.0,58,0.00,,---,0.44,VWS V14.01,2013-01-31 23:35:00,
2013-01-31 18:40:00,34.8,21.5,29.41,SSW,199,18.0,20.0,58,0.00,,---,0.44,VWS V14.01,2013-01-31 23:40:00,
2013-01-31 18:45:00,34.8,21.5,29.41,West,269,10.0,19.0,58,0.00,,---,0.44,VWS V14.01,2013-01-31 23:45:00,
2013-01-31 18:51:00,34.7,21.5,29.42,West,260,8.0,19.0,58,0.00,,---,0.44,VWS V14.01,2013-01-31 23:51:00,
2013-01-31 18:56:00,34.4,21.6,29.42,SSW,209,4.0,19.0,59,0.00,,---,0.44,VWS V14.01,2013-01-31 23:56:00,
2013-01-31 19:01:00,34.4,22.0,29.42,West,265,21.0,22.0,60,0.00,,---,0.44,VWS V14.01,2013-02-01 00:01:00,
2013-01-31 19:06:00,34.2,21.8,29.42,WSW,246,8.0,22.0,60,0.00,,---,0.44,VWS V14.01,2013-02-01 00:06:00,
2013-01-31 19:11:00,34.0,21.6,29.42,WSW,252,4.0,16.0,60,0.00,,---,0.44,VWS V14.01,2013-02-01 00:11:00,
2013-01-31 19:16:00,33.9,21.5,29.42,WSW,246,5.0,17.0,60,0.00,,---,0.44,VWS V14.01,2013-02-01 00:16:00,
2013-01-31 19:21:00,33.7,21.7,29.43,West,268,7.0,14.0,61,0.00,,---,0.44,VWS V14.01,2013-02-01 00:21:00,
2013-01-31 19:26:00,33.6,21.6,29.44,West,270,7.0,13.0,61,0.00,,---,0.44,VWS V14.01,2013-02-01 00:26:00,
2013-01-31 19:32:00,33.5,21.5,29.44,SW,215,6.0,14.0,61,0.00,,---,0.44,VWS V14.01,2013-02-01 00:32:00,
2013-01-31 19:37:00,33.4,21.8,29.45,SW,233,3.0,13.0,62,0.00,,---,0.44,VWS V14.01,2013-02-01 00:37:00,
2013-01-31 19:42:00,33.3,21.3,29.45,WSW,238,8.0,17.0,61,0.00,,---,0.44,VWS V14.01,2013-02-01 00:42:00,
2013-01-31 19:47:00,33.3,20.9,29.45,WSW,252,11.0,23.0,60,0.00,,---,0.44,VWS V14.01,2013-02-01 00:47:00,
2013-01-31 19:52:00,33.4,21.0,29.46,West,279,11.0,19.0,60,0.00,,---,0.44,VWS V14.01,2013-02-01 00:52:00,
2013-01-31 19:57:00,33.5,20.7,29.46,SSW,202,6.0,28.0,59,0.00,,---,0.44,VWS V14.01,2013-02-01 00:57:00,
2013-01-31 20:02:00,33.4,20.6,29.46,West,275,4.0,16.0,59,0.00,,---,0.44,VWS V14.01,2013-02-01 01:02:00,
2013-01-31 20:07:00,33.3,20.1,29.46,SW,228,18.0,27.0,58,0.00,,---,0.44,VWS V14.01,2013-02-01 01:07:00,
2013-01-31 20:12:00,33.2,20.4,29.46,West,273,13.0,13.0,59,0.00,,---,0.44,VWS V14.01,2013-02-01 01:12:00,
2013-01-31 20:17:00,32.8,19.7,29.47,West,273,7.0,18.0,58,0.00,,---,0.44,VWS V14.01,2013-02-01 01:17:00,
2013-01-31 20:23:00,32.7,19.6,29.47,West,265,12.0,16.0,58,0.00,,---,0.44,VWS V14.01,2013-02-01 01:23:00,
2013-01-31 20:28:00,32.5,19.8,29.47,WNW,282,16.0,19.0,59,0.00,,---,0.44,VWS V14.01,2013-02-01 01:28:00,
2013-01-31 20:33:00,32.3,19.6,29.48,SW,228,11.0,24.0,59,0.00,,---,0.44,VWS V14.01,2013-02-01 01:33:00,
2013-01-31 20:38:00,32.2,19.5,29.48,South,191,6.0,13.0,59,0.00,,---,0.44,VWS V14.01,2013-02-01 01:38:00,
2013-01-31 20:43:00,32.1,19.8,29.47,SW,233,10.0,15.0,60,0.00,,---,0.44,VWS V14.01,2013-02-01 01:43:00,
2013-01-31 20:48:00,31.9,19.6,29.48,WSW,244,17.0,22.0,60,0.00,,---,0.44,VWS V14.01,2013-02-01 01:48:00,
2013-01-31 20:53:00,32.0,19.7,29.49,SW,227,3.0,16.0,60,0.00,,---,0.44,VWS V14.01,2013-02-01 01:53:00,
2013-01-31 20:58:00,31.8,19.5,29.48,WSW,255,6.0,16.0,60,0.00,,---,0.44,VWS V14.01,2013-02-01 01:58:00,
2013-01-31 21:03:00,31.7,19.0,29.48,WSW,250,14.0,21.0,59,0.00,,---,0.44,VWS V14.01,2013-02-01 02:03:00,
2013-01-31 21:08:00,31.7,19.0,29.49,West,275,18.0,18.0,59,0.00,,---,0.44,VWS V14.01,2013-02-01 02:08:00,
2013-01-31 21:13:00,31.7,19.0,29.49,WSW,244,3.0,19.0,59,0.00,,---,0.44,VWS V14.01,2013-02-01 02:13:00,
2013-01-31 21:18:00,31.6,18.9,29.50,SW,232,9.0,17.0,59,0.00,,---,0.44,VWS V14.01,2013-02-01 02:18:00,
2013-01-31 21:23:00,31.4,19.1,29.49,West,259,13.0,16.0,60,0.00,,---,0.44,VWS V14.01,2013-02-01 02:23:00,
2013-01-31 21:28:00,31.2,19.3,29.50,WSW,258,14.0,16.0,61,0.00,,---,0.44,VWS V14.01,2013-02-01 02:28:00,
2013-01-31 21:34:00,31.2,19.3,29.50,West,259,8.0,18.0,61,0.00,,---,0.44,VWS V14.01,2013-02-01 02:34:00,
2013-01-31 21:39:00,31.1,19.2,29.50,West,279,10.0,22.0,61,0.00,,---,0.44,VWS V14.01,2013-02-01 02:39:00,
2013-01-31 21:44:00,31.0,19.1,29.51,WSW,257,6.0,8.0,61,0.00,,---,0.44,VWS V14.01,2013-02-01 02:44:00,
2013-01-31 21:49:00,30.9,19.0,29.51,WSW,238,9.0,22.0,61,0.00,,---,0.44,VWS V14.01,2013-02-01 02:49:00,
2013-01-31 21:54:00,30.8,19.0,29.51,WSW,254,8.0,13.0,61,0.00,,---,0.44,VWS V14.01,2013-02-01 02:54:00,
2013-01-31 21:59:00,30.7,18.5,29.51,WSW,246,9.0,9.0,60,0.00,,---,0.44,VWS V14.01,2013-02-01 02:59:00,
2013-01-31 22:04:00,30.6,18.8,29.52,WSW,252,16.0,16.0,61,0.00,,---,0.44,VWS V14.01,2013-02-01 03:04:00,
2013-01-31 22:09:00,30.5,18.7,29.52,West,274,7.0,11.0,61,0.00,,---,0.44,VWS V14.01,2013-02-01 03:09:00,
2013-01-31 22:14:00,30.3,18.1,29.52,West,281,7.0,10.0,60,0.00,,---,0.44,VWS V14.01,2013-02-01 03:14:00,
2013-01-31 22:19:00,30.2,17.6,29.51,West,265,10.0,15.0,59,0.00,,---,0.44,VWS V14.01,2013-02-01 03:19:00,
2013-01-31 22:24:00,30.2,18.0,29.52,West,270,4.0,7.0,60,0.00,,---,0.44,VWS V14.01,2013-02-01 03:24:00,
2013-01-31 22:29:00,30.1,17.5,29.52,WNW,288,13.0,13.0,59,0.00,,---,0.44,VWS V14.01,2013-02-01 03:29:00,
2013-01-31 22:34:00,30.0,17.4,29.52,NW,317,5.0,13.0,59,0.00,,---,0.44,VWS V14.01,2013-02-01 03:34:00,
2013-01-31 22:39:00,30.1,17.1,29.53,NW,311,4.0,15.0,58,0.00,,---,0.44,VWS V14.01,2013-02-01 03:39:00,
2013-01-31 22:44:00,30.1,16.7,29.53,NW,305,6.0,11.0,57,0.00,,---,0.44,VWS V14.01,2013-02-01 03:44:00,
2013-01-31 22:49:00,30.0,16.6,29.53,SSW,211,5.0,8.0,57,0.00,,---,0.44,VWS V14.01,2013-02-01 03:49:00,
2013-01-31 22:55:00,29.8,16.8,29.53,WSW,254,4.0,8.0,58,0.00,,---,0.44,VWS V14.01,2013-02-01 03:55:00,
2013-01-31 23:00:00,29.7,17.5,29.53,WNW,282,10.0,16.0,60,0.00,,---,0.44,VWS V14.01,2013-02-01 04:00:00,
2013-01-31 23:05:00,29.6,17.4,29.53,West,275,8.0,13.0,60,0.00,,---,0.44,VWS V14.01,2013-02-01 04:05:00,
2013-01-31 23:10:00,29.5,18.1,29.53,WNW,288,6.0,8.0,62,0.00,,---,0.44,VWS V14.01,2013-02-01 04:10:00,
2013-01-31 23:15:00,29.3,17.5,29.53,SW,219,3.0,12.0,61,0.00,,---,0.44,VWS V14.01,2013-02-01 04:15:00,
2013-01-31 23:20:00,29.2,17.4,29.53,WSW,242,4.0,9.0,61,0.00,,---,0.44,VWS V14.01,2013-02-01 04:20:00,
2013-01-31 23:25:00,29.2,17.4,29.53,SSW,198,5.0,9.0,61,0.00,,---,0.44,VWS V14.01,2013-02-01 04:25:00,
2013-01-31 23:30:00,29.2,17.4,29.54,WSW,253,13.0,14.0,61,0.00,,---,0.44,VWS V14.01,2013-02-01 04:30:00,
2013-01-31 23:35:00,29.1,17.3,29.53,West,271,3.0,7.0,61,0.00,,---,0.44,VWS V14.01,2013-02-01 04:35:00,
2013-01-31 23:40:00,29.0,17.2,29.54,West,267,5.0,9.0,61,0.00,,---,0.44,VWS V14.01,2013-02-01 04:40:00,
2013-01-31 23:45:00,29.0,17.2,29.54,West,259,7.0,12.0,61,0.00,,---,0.44,VWS V14.01,2013-02-01 04:45:00,
2013-01-31 23:50:00,29.0,16.9,29.54,SW,232,5.0,15.0,60,0.00,,---,0.44,VWS V14.01,2013-02-01 04:50:00,
2013-01-31 23:55:00,29.0,17.2,29.54,WSW,250,10.0,19.0,61,0.00,,---,0.44,VWS V14.01,2013-02-01 04:55:00,